EHI
0 0 0 0 0 0 0 0 0 0 0 0 0 0 0 0 0 0 0 0 0 0 0 0 0 0 0 0 1 1 0 0 0 0 0 0 0 0 0 0 0 0 0 0
0 0 0 0 0 0 0 0 0 0 0 0 0 0 0 0 0 0 0 0 0 0 0 0 0 0 0 0 1 1 0 0 0 0 0 0 0 0 0 0 0 0 0 0
0 0 0 0 0 0 0 0 0 0 0 0 0 0 0 0 0 0 0 0 0 0 0 0 0 0 0 0 1 1 0 0 0 0 0 0 0 0 0 0 0 0 0 0
0 0 0 0 0 0 0 0 0 0 0 0 0 0 0 0 0 0 0 0 0 0 0 0 0 0 0 0 0 0 0 0 0 0 0 0 0 0 0 0 0 0 0 0
0 0 0 0 0 0 0 0 0 0 0 0 0 0 0 0 0 0 0 0 0 0 0 0 0 0 0 0 0 0 0 0 0 0 0 0 0 0 0 0 0 0 0 0
0 0 0 0 0 0 0 0 0 0 0 0 0 0 0 0 0 0 0 0 0 0 0 0 0 0 0 0 0 0 0 0 0 0 0 0 0 0 0 0 0 0 0 0
0 0 0 0 0 0 0 0 0 0 0 0 0 0 0 0 0 0 0 0 0 0 0 0 0 0 0 0 0 0 0 0 0 0 0 0 0 0 0 0 0 0 0 0
0 0 0 0 0 0 0 0 0 0 0 0 0 0 0 0 0 0 0 0 0 0 0 0 0 0 0 0 0 0 0 0 0 0 0 0 0 0 0 0 0 0 0 0
0 0 0 0 0 0 0 0 0 0 0 0 0 0 0 0 0 0 0 0 0 0 0 0 0 0 0 0 0 0 0 0 0 0 0 0 0 0 0 0 0 0 0 0
0 0 0 0 0 0 0 0 0 0 0 0 0 0 0 0 0 0 0 0 0 0 0 0 0 0 0 0 0 0 0 0 0 0 0 0 0 0 0 0 0 0 0 0
0 0 0 0 0 0 0 0 0 0 0 0 0 0 0 0 0 0 0 0 0 0 0 0 0 0 0 0 0 0 0 0 0 0 0 0 0 0 0 0 0 0 0 0
0 0 0 0 0 0 0 0 0 0 0 0 0 0 0 0 0 0 0 0 0 0 0 0 0 0 0 0 0 0 0 0 0 0 0 0 0 0 0 0 0 0 0 0
0 0 0 0 0 0 0 0 0 0 0 0 0 0 0 0 0 0 0 0 0 0 0 0 0 0 0 0 0 0 0 0 0 0 0 0 0 0 0 0 0 0 0 0
0 0 0 0 0 0 0 0 0 0 0 0 0 0 0 0 0 0 0 0 0 0 0 0 0 0 0 0 0 0 0 0 0 0 0 0 0 0 0 0 0 0 0 0
0 0 0 0 0 0 0 0 0 0 0 0 0 0 0 0 0 0 0 0 0 0 0 0 0 0 0 0 0 0 0 0 0 0 0 0 0 0 0 0 0 0 0 0
0 0 0 0 0 0 0 0 0 0 0 0 0 0 0 0 0 0 0 0 0 0 0 0 0 0 0 0 0 0 0 0 0 0 0 0 0 0 0 0 0 0 0 0
0 0 0 0 0 0 0 0 0 0 0 0 0 0 0 0 0 0 0 0 0 0 0 0 0 0 0 0 0 0 0 0 0 0 0 0 0 0 0 0 0 0 0 0
0 0 0 0 0 0 0 0 0 0 0 0 0 0 0 0 0 0 0 0 0 0 0 0 0 0 0 0 0 0 0 0 0 0 0 0 0 0 0 0 0 0 0 0
0 0 0 0 0 0 0 0 0 0 0 0 0 0 0 0 0 0 0 0 0 0 0 0 0 0 0 0 0 0 0 0 0 0 0 0 0 0 0 0 0 0 0 0
0 0 0 0 0 0 0 0 0 0 0 0 0 0 0 0 0 0 0 0 0 0 0 0 0 0 0 0 0 0 0 0 0 0 0 0 0 0 0 0 0 0 0 0
0 0 0 0 0 0 0 0 0 0 0 0 0 0 0 0 0 0 0 0 0 0 0 0 0 0 0 0 0 0 0 0 0 0 0 0 0 0 0 0 0 0 0 0
0 0 0 0 0 0 0 0 0 0 0 0 0 0 0 0 0 0 0 0 0 0 0 0 0 0 0 0 0 0 0 0 0 0 0 0 0 0 0 0 0 0 0 0
0 0 0 0 0 0 0 0 0 0 0 0 0 0 0 0 0 0 0 0 0 0 0 0 0 0 0 0 0 0 0 0 0 0 0 0 0 0 0 0 0 0 0 0
0 0 0 0 0 0 0 0 0 0 0 0 0 0 0 0 0 0 0 0 0 0 0 0 0 0 0 0 0 0 0 0 0 0 0 0 0 0 0 0 0 0 0 0
0 0 0 0 0 0 0 0 0 0 0 0 0 0 0 0 0 0 0 0 0 0 0 0 0 0 0 0 0 0 0 0 0 0 0 0 0 0 0 0 0 0 0 0
0 0 0 0 0 0 0 0 0 0 0 0 0 0 0 0 0 0 0 0 0 0 0 0 0 0 0 0 0 0 0 0 0 0 0 0 0 0 0 0 0 0 0 0
Wind_Speed
1 2 4 6 7 4 2 3 6 6 3 2 6 9 9 5 4 5 5 4 4 5 3 1 1 1 1 1 2 3 2 2 3 2 2 2 2 1 1 1 2 3 3 3
1 5 7 4 4 4 4 5 5 4 2 3 5 9 8 5 5 5 5 5 4 3 1 1 1 1 1 1 1 3 3 2 2 2 2 2 2 1 1 1 1 2 2 3
7 4 3 4 4 4 5 6 5 4 4 2 3 7 4 3 2 2 3 3 3 4 3 1 1 0 0 0 1 2 3 3 2 3 3 3 3 2 1 1 1 1 1 2
6 5 2 4 5 5 6 5 4 3 1 4 1 5 6 3 3 3 4 3 3 3 3 2 1 0 1 1 1 1 2 3 3 3 4 4 3 2 1 1 0 0 2 2
5 4 4 6 6 6 5 1 3 3 2 3 2 4 8 1 4 5 5 4 4 4 3 3 2 2 1 1 1 1 3 3 3 3 3 3 2 1 1 1 1 0 0 1
5 2 4 5 2 4 2 2 2 2 2 4 5 5 7 4 6 4 4 4 4 3 3 2 1 1 1 2 2 2 3 2 3 3 3 3 3 2 2 2 1 0 0 0
4 3 2 2 2 1 3 3 2 2 1 7 2 4 9 5 4 5 5 4 3 3 3 2 2 2 2 2 2 2 3 2 2 3 2 2 2 2 2 1 1 1 0 0
4 6 5 4 5 5 4 6 6 5 5 4 2 7 7 3 2 2 2 2 2 2 2 2 2 3 3 2 2 2 2 2 2 2 2 2 2 1 1 1 1 1 1 1
6 6 1 2 2 6 5 4 3 3 1 3 6 6 6 1 1 1 0 1 2 2 2 2 2 2 2 2 2 3 3 2 1 1 1 1 1 1 1 1 1 1 0 0
6 4 3 1 2 0 3 6 4 4 3 5 5 5 5 4 3 2 1 1 1 1 1 1 1 1 1 1 1 1 2 2 1 1 1 1 1 1 1 1 1 1 0 0
4 4 2 1 6 7 4 4 4 3 3 4 4 6 4 5 3 3 3 2 2 2 2 2 1 1 1 1 1 2 1 2 1 1 1 1 1 0 1 1 1 1 0 0
4 4 4 6 3 3 5 6 7 5 5 4 3 8 2 2 2 2 2 2 1 1 1 1 1 1 1 1 1 1 1 1 1 1 1 1 1 1 1 0 1 1 1 1
6 5 1 3 1 1 3 4 4 3 3 4 5 8 1 1 1 1 0 0 1 1 1 1 1 1 1 1 1 1 1 1 1 1 1 1 0 1 1 1 1 1 1 1
4 5 7 9 6 5 5 5 6 6 5 6 9 8 6 3 2 2 1 1 1 1 1 1 1 1 1 1 1 1 1 1 1 1 1 1 1 2 1 1 1 1 1 1
3 5 6 6 4 3 6 8 8 10 10 9 9 10 10 6 4 3 2 1 0 1 1 2 2 2 1 1 1 1 1 1 1 1 2 2 2 1 1 1 1 1 1 1
3 4 3 4 4 5 7 8 10 11 9 10 9 11 6 3 1 1 1 2 2 2 3 2 2 2 2 2 2 1 1 1 1 1 2 2 1 1 1 1 1 1 1 1
4 4 3 4 1 1 9 9 10 7 6 7 11 9 2 1 2 2 2 2 2 2 2 3 3 3 4 4 3 3 3 1 1 1 2 2 1 1 1 1 1 1 1 1
6 5 3 2 2 9 7 3 5 6 5 5 4 3 3 3 1 1 2 3 2 2 2 3 3 3 2 2 1 1 1 1 1 1 1 2 2 2 1 1 1 2 1 1
6 6 4 4 5 8 5 2 3 5 5 4 5 3 1 2 2 3 1 1 2 3 3 3 3 2 1 1 1 1 1 1 1 1 2 2 2 2 2 2 2 2 2 2
4 4 4 4 5 7 5 3 2 3 4 3 3 4 3 3 1 3 2 1 2 2 2 2 1 0 0 1 1 2 1 1 2 3 3 2 2 2 3 3 3 2 2 3
4 4 5 6 6 7 4 2 2 4 5 1 2 2 2 3 3 2 2 2 2 2 2 1 1 1 1 1 1 1 1 2 3 2 2 1 2 2 3 3 2 2 2 2
5 5 5 4 5 8 1 2 4 4 1 1 1 1 1 1 0 1 1 2 1 1 1 1 1 1 1 1 1 1 1 2 2 2 2 2 2 2 1 2 2 2 2 2
5 5 4 6 5 2 1 2 2 2 2 0 1 1 1 1 1 1 2 2 2 1 1 1 0 1 2 1 1 1 2 2 1 1 2 2 1 1 1 1 2 1 1 2
2 1 1 1 3 3 2 1 0 0 1 1 1 1 1 1 1 1 2 2 2 2 1 1 0 0 2 2 1 2 2 2 1 2 2 2 1 1 1 1 1 2 2 2
3 1 2 3 3 2 2 1 1 1 1 1 1 1 1 1 2 2 2 2 2 1 1 1 1 1 2 2 2 2 2 1 1 2 2 2 1 1 2 2 2 3 3 4
2 3 3 4 4 3 3 2 1 1 1 2 1 1 2 2 2 2 2 2 2 1 1 1 1 2 3 2 2 2 2 1 1 2 2 2 1 1 2 2 3 4 5 7
Wind_Direction
137 120 220 220 209 222 234 240 259 256 247 225 242 260 268 259 236 239 242 241 236 247 256 284 330 356 91 98 136 140 142 135 132 137 139 139 157 158 145 185 164 156 163 167
81 240 233 212 208 222 238 257 263 279 274 240 265 270 267 237 225 225 226 232 234 243 282 337 343 3 53 108 135 134 142 139 137 143 139 140 139 138 170 176 124 121 157 168
203 230 200 191 211 221 235 228 245 269 325 305 303 294 269 255 226 235 229 227 231 223 224 237 251 273 68 113 171 157 147 144 134 118 105 93 85 77 85 81 85 85 176 165
232 241 201 200 213 196 249 229 229 252 306 285 282 288 276 254 261 248 245 236 237 243 230 217 210 210 207 212 172 136 133 127 122 121 121 119 128 152 184 168 174 221 168 145
238 206 196 216 217 187 225 226 209 222 213 278 239 238 280 257 249 248 245 242 236 234 225 207 204 206 201 153 126 124 118 119 117 116 124 126 121 123 97 96 129 210 144 144
245 225 203 213 208 181 164 72 63 68 105 260 220 199 273 234 223 241 243 247 238 231 222 206 191 128 92 97 100 104 111 109 119 123 121 124 129 117 96 91 107 21 27 32
277 246 225 167 131 127 126 110 31 342 268 250 209 206 251 244 224 222 228 234 236 219 197 185 168 150 126 133 129 114 113 95 100 117 121 131 143 140 148 152 167 166 102 3
231 265 214 189 179 176 184 163 173 209 228 271 256 233 251 248 245 248 244 210 189 193 191 187 181 171 162 160 147 134 126 112 118 127 133 130 140 144 166 163 168 186 194 215
201 249 254 196 188 153 159 194 180 149 201 260 259 272 293 262 310 327 327 130 165 183 188 187 178 173 169 162 162 155 140 124 139 138 125 117 125 141 160 159 154 170 186 165
176 241 263 211 116 145 167 152 128 160 195 247 270 255 242 237 247 264 256 230 226 183 176 175 171 173 169 160 132 119 131 138 136 126 137 124 146 165 169 155 160 164 168 134
165 195 271 206 197 188 151 160 166 169 189 195 252 263 231 212 209 219 236 239 228 217 194 178 169 144 100 75 89 100 108 115 116 127 129 118 120 121 118 142 191 175 155 160
170 155 236 243 245 202 183 182 161 176 220 200 213 266 286 201 216 213 231 234 227 207 193 176 152 126 113 111 115 112 104 118 160 166 145 138 119 107 120 187 229 178 190 213
156 155 195 319 322 202 212 198 183 155 146 181 200 259 298 27 9 358 184 230 234 205 163 138 127 149 174 171 179 174 174 214 212 165 145 135 147 167 209 234 236 181 182 212
149 174 193 211 220 188 216 218 192 168 190 215 224 248 273 287 294 295 297 252 214 212 196 174 174 228 245 239 217 209 237 224 207 174 162 181 213 215 221 228 233 218 197 195
146 214 225 245 249 217 230 228 208 208 208 215 237 239 256 252 241 234 222 214 208 237 228 212 212 233 237 244 262 257 254 254 207 179 190 212 218 213 206 209 238 235 208 207
165 212 211 254 238 237 255 245 223 227 227 233 249 259 262 263 202 205 221 211 222 238 238 238 235 237 239 229 230 235 244 251 205 200 226 225 209 199 200 209 214 208 213 217
187 170 180 245 247 298 256 228 215 214 213 206 231 243 213 230 225 217 215 210 218 241 247 244 238 228 230 226 212 208 217 216 190 201 219 220 207 204 221 213 197 221 231 237
179 172 182 194 142 233 244 208 201 207 230 222 224 231 202 194 202 239 211 205 233 259 266 262 250 245 249 240 233 214 199 187 201 215 227 222 205 211 222 214 232 243 240 240
185 170 172 179 221 263 284 252 183 192 247 235 215 223 203 131 55 349 314 226 249 262 264 263 255 241 235 228 204 164 174 211 232 250 250 239 210 207 217 229 242 243 237 250
164 166 173 180 206 238 254 262 222 136 262 247 195 205 190 131 202 268 285 299 306 303 300 300 297 320 140 247 168 147 183 217 248 254 256 246 217 208 220 228 236 240 240 251
165 184 202 206 222 257 266 279 125 175 244 234 183 189 177 198 217 237 298 314 306 308 311 323 2 17 302 250 139 147 208 254 264 272 276 261 237 226 229 230 231 228 234 252
185 186 201 196 216 248 259 125 174 220 251 127 142 154 151 188 217 286 301 306 309 321 329 351 50 2 341 35 123 146 271 278 287 285 282 269 257 248 241 222 236 225 212 234
207 201 200 200 217 262 227 197 227 180 155 189 147 143 136 135 294 308 313 311 309 304 305 319 106 359 337 342 143 201 270 280 288 291 284 272 269 257 240 223 233 240 222 227
263 299 166 251 269 277 285 299 343 151 173 165 147 159 145 200 260 283 296 308 319 319 299 278 136 321 308 305 283 253 270 282 282 285 288 279 268 279 275 253 231 231 235 237
241 195 193 238 267 327 323 289 281 24 82 90 17 289 208 196 254 266 276 283 284 295 300 287 235 254 273 282 287 285 282 279 279 280 284 284 267 254 267 263 239 233 237 229
215 193 191 228 225 214 252 257 250 252 261 238 236 292 278 228 237 252 264 272 270 275 282 285 279 275 281 286 292 291 279 240 240 268 277 273 262 253 256 271 286 259 249 262